Location: Unspecified
(0.0000°N, 0.0000°E)
Time: 07:48:06
(UTC+00:00)

Vanguard 2 Rocket - Pass Details

Date: 14 October 2022
Orbit: 555 x 3321 km, 32.9° (Epoch: 06 December)

Event Time Altitude Azimuth Distance (km) Brightness Sun altitude
Rises 02:09:42 0° 317° (NW) 5,289 - -53.3°
Reaches altitude 10° 02:14:22 10° 327° (NNW) 3,777 - -52.2°
Maximum altitude 02:21:58 30° 24° (NNE) 1,825 - -50.3°
Drops below altitude 10° 02:26:53 10° 85° (E) 2,394 - -49.1°
Exits shadow 02:28:00 - 92° (E) 2,728 9.9 -48.9°
Sets 02:29:09 0° 97° (E) 3,111 10.3 -48.6°
